Weather History for Coatesville, PA

Change the Weather History Date:

Saturday, March 29, 2014

  Actual Average (KLNS) Record (KLNS)
Temperature  
Mean Temperature 52 °F -  
Max Temperature 57 °F 63 °F 82 °F (1998)
Min Temperature 46 °F 38 °F 20 °F (1982)
Degree Days  
Heating Degree Days 14    
Growing Degree Days 2 (Base 50)    
Moisture  
Dew Point 47 °F    
Average Humidity 98    
Maximum Humidity 100    
Minimum Humidity 82    
Precipitation  
Precipitation 1.26 in - - ()
Sea Level Pressure  
Sea Level Pressure 29.97 in    
Wind  
Wind Speed 6 mph (ENE)    
Max Wind Speed 18 mph    
Max Gust Speed 31 mph    
Visibility 5 miles    
Events Rain    
Averages and records for this station are not official NWS values.
T = Trace of Precipitation, MM = Missing Value Source: NWS Daily Summary

Daily Weather History Graph

Daily Weather History Graph

Search for Another Location

Airport:

Trip Planner

Search our weather history database for the weather conditions in past years. The results will help you decide how hot, cold, wet, or windy it might be!

Date:

Astronomy

Mar. 29, 2014 Rise Set
Actual Time 6:52 AM EDT 7:24 PM EDT
Civil Twilight 6:25 AM EDT 7:51 PM EDT
Nautical Twilight 5:53 AM EDT 8:24 PM EDT
Astronomical Twilight 5:20 AM EDT 8:57 PM EDT
Moon 5:59 AM EDT (3/29) 6:27 PM EDT (3/29)
Length of Visible Light 13h 26m
Length of Day
12h 32m
Waning Crescent, 2% of the Moon is Illuminated
Mar 29
Waning Crescent
Mar 30
New
Apr 7
First Quarter
Apr 15
Full
Apr 22
Last Quarter

Hourly Weather History & Observations

Time (EDT) Temp. Windchill Dew Point Humidity Pressure Visibility Wind Dir Wind Speed Gust Speed Precip Events Conditions
12:15 AM 57.2 °F - 51.8 °F 82% 30.12 in 10.0 mi Calm Calm - N/A   Scattered Clouds
12:35 AM 55.4 °F - 51.8 °F 88% 30.12 in 10.0 mi South 3.5 mph - N/A   Mostly Cloudy
12:55 AM 57.2 °F - 51.8 °F 82% 30.12 in 10.0 mi Calm Calm - N/A   Mostly Cloudy
1:15 AM 51.8 °F - 50.0 °F 94% 30.12 in 10.0 mi Calm Calm - N/A   Clear
1:35 AM 51.8 °F - 51.8 °F 100% 30.12 in 10.0 mi Calm Calm - N/A   Clear
2:15 AM 51.8 °F - 51.8 °F 100% 30.12 in 10.0 mi Calm Calm - N/A   Clear
2:35 AM 51.8 °F - 51.8 °F 100% 30.12 in 10.0 mi East 5.8 mph - N/A   Clear
2:55 AM 46.4 °F 45.2 °F 46.4 °F 100% 30.12 in 1.2 mi NNE 3.5 mph - N/A   Clear
3:15 AM 48.2 °F - 48.2 °F 100% 30.10 in 7.0 mi Calm Calm - N/A   Clear
3:35 AM 46.4 °F 44.3 °F 46.4 °F 100% 30.10 in 5.0 mi North 4.6 mph - N/A   Clear
3:55 AM 48.2 °F - 48.2 °F 100% 30.10 in 10.0 mi North 6.9 mph - N/A   Clear
4:15 AM 51.8 °F - 51.8 °F 100% 30.10 in 10.0 mi NNE 4.6 mph - N/A   Clear
4:35 AM 50.0 °F - 50.0 °F 100% 30.10 in 10.0 mi NNE 3.5 mph - N/A   Clear
4:55 AM 50.0 °F - 50.0 °F 100% 30.10 in 10.0 mi Calm Calm - N/A   Clear
5:15 AM 50.0 °F - 50.0 °F 100% 30.11 in 10.0 mi Calm Calm - N/A   Clear
5:35 AM 50.0 °F - 50.0 °F 100% 30.11 in 10.0 mi NE 3.5 mph - N/A   Clear
5:55 AM 48.2 °F - 48.2 °F 100% 30.11 in 10.0 mi Calm Calm - N/A   Clear
6:15 AM 48.2 °F - 48.2 °F 100% 30.12 in 10.0 mi Calm Calm - N/A   Scattered Clouds
6:35 AM 50.0 °F - 48.2 °F 94% 30.14 in 10.0 mi Calm Calm - N/A   Overcast
6:55 AM 50.0 °F - 48.2 °F 94% 30.13 in 10.0 mi NE 3.5 mph - N/A   Overcast
7:15 AM 48.2 °F - 46.4 °F 93% 30.13 in 10.0 mi NE 3.5 mph - N/A   Overcast
7:35 AM 48.2 °F - 46.4 °F 93% 30.13 in 10.0 mi NE 4.6 mph - N/A   Overcast
7:55 AM 48.2 °F - 46.4 °F 93% 30.12 in 10.0 mi NE 3.5 mph - N/A   Overcast
8:15 AM 48.2 °F - 44.6 °F 87% 30.12 in 10.0 mi NE 8.1 mph - N/A   Overcast
8:35 AM 48.2 °F - 44.6 °F 87% 30.12 in 10.0 mi ENE 4.6 mph - N/A   Mostly Cloudy
8:55 AM 48.2 °F - 44.6 °F 87% 30.12 in 10.0 mi NE 6.9 mph - N/A   Overcast
9:15 AM 48.2 °F - 44.6 °F 87% 30.12 in 10.0 mi NE 4.6 mph - N/A Rain Light Rain
9:35 AM 48.2 °F - 44.6 °F 87% 30.12 in 10.0 mi NE 4.6 mph - N/A   Overcast
9:55 AM 46.4 °F 43.5 °F 44.6 °F 93% 30.12 in 9.0 mi ENE 5.8 mph - N/A Rain Rain
10:15 AM 46.4 °F 43.5 °F 46.4 °F 100% 30.11 in 4.0 mi ENE 5.8 mph - 0.01 in Rain Light Rain
10:35 AM 46.4 °F 43.5 °F 46.4 °F 100% 30.11 in 9.0 mi ENE 5.8 mph - 0.01 in Rain Light Rain
10:55 AM 46.4 °F 44.3 °F 46.4 °F 100% 30.10 in 1.5 mi ENE 4.6 mph - 0.04 in   Light Drizzle
11:15 AM 46.4 °F 41.1 °F 46.4 °F 100% 30.09 in 4.0 mi ENE 11.5 mph 23.0 mph N/A   Overcast
11:35 AM 46.4 °F 40.7 °F 46.4 °F 100% 30.08 in 1.5 mi ENE 12.7 mph 27.6 mph N/A Rain Light Rain
11:55 AM 46.4 °F 39.8 °F 46.4 °F 100% 30.07 in 1.2 mi ENE 16.1 mph 29.9 mph N/A Rain Light Rain
12:15 PM 46.4 °F 39.5 °F 46.4 °F 100% 30.06 in 2.0 mi ENE 17.3 mph 25.3 mph N/A   Overcast
12:35 PM 46.4 °F 41.5 °F 46.4 °F 100% 30.05 in 1.0 mi ENE 10.4 mph 25.3 mph N/A   Overcast
12:55 PM 46.4 °F 40.1 °F 46.4 °F 100% 30.04 in 1.0 mi ENE 15.0 mph 26.5 mph N/A   Overcast
1:15 PM 46.4 °F 40.1 °F 46.4 °F 100% 30.03 in 0.8 mi ENE 15.0 mph 24.2 mph N/A Rain Light Rain
1:35 PM 46.4 °F 40.4 °F 46.4 °F 100% 30.01 in 1.0 mi ENE 13.8 mph 25.3 mph N/A Rain Light Rain
1:55 PM 46.4 °F 40.1 °F 46.4 °F 100% 30.00 in 1.0 mi ENE 15.0 mph 28.8 mph N/A Rain Light Rain
2:15 PM 46.4 °F 40.4 °F 46.4 °F 100% 29.99 in 2.5 mi ENE 13.8 mph 25.3 mph 0.01 in Rain Light Rain
2:35 PM 46.4 °F 42.4 °F 46.4 °F 100% 29.97 in 1.8 mi ENE 8.1 mph 23.0 mph 0.05 in Rain Rain
2:55 PM 46.4 °F 39.2 °F 46.4 °F 100% 29.96 in 2.0 mi East 18.4 mph 31.1 mph 0.11 in Rain Rain
3:15 PM 46.4 °F 41.1 °F 46.4 °F 100% 29.94 in 1.5 mi ENE 11.5 mph 26.5 mph 0.05 in Rain Heavy Rain
3:35 PM 46.4 °F 39.5 °F 46.4 °F 100% 29.93 in 1.8 mi ENE 17.3 mph 25.3 mph 0.11 in Rain Rain
3:55 PM 46.4 °F 39.8 °F 46.4 °F 100% 29.91 in 1.5 mi ENE 16.1 mph 24.2 mph 0.16 in Rain Rain
4:15 PM 46.4 °F 40.4 °F 46.4 °F 100% 29.91 in 1.8 mi ENE 13.8 mph 26.5 mph 0.01 in Rain Rain
4:35 PM 46.4 °F 41.5 °F 46.4 °F 100% 29.89 in 1.2 mi ENE 10.4 mph 23.0 mph 0.09 in Rain Light Rain
4:55 PM 46.4 °F 41.1 °F 46.4 °F 100% 29.88 in 2.0 mi ENE 11.5 mph 21.9 mph 0.11 in Rain Rain
5:15 PM 46.4 °F 40.1 °F 46.4 °F 100% 29.87 in 5.0 mi East 15.0 mph 23.0 mph N/A   Overcast
5:35 PM 46.4 °F 40.1 °F 46.4 °F 100% 29.86 in 1.5 mi East 15.0 mph 21.9 mph 0.01 in   Overcast
5:55 PM 46.4 °F 41.1 °F 46.4 °F 100% 29.84 in 6.0 mi ENE 11.5 mph 26.5 mph 0.01 in   Overcast
6:15 PM 46.4 °F 41.1 °F 46.4 °F 100% 29.83 in 10.0 mi ENE 11.5 mph 28.8 mph N/A   Overcast
6:35 PM 46.4 °F 41.5 °F 46.4 °F 100% 29.82 in 3.0 mi ENE 10.4 mph 23.0 mph N/A   Overcast
6:55 PM 46.4 °F 40.7 °F 46.4 °F 100% 29.81 in 1.5 mi ENE 12.7 mph 21.9 mph 0.04 in Rain Rain
7:15 PM 46.4 °F 40.4 °F 46.4 °F 100% 29.79 in 2.5 mi ENE 13.8 mph 23.0 mph 0.05 in Rain Heavy Rain
7:35 PM 46.4 °F 41.9 °F 46.4 °F 100% 29.77 in 3.0 mi ENE 9.2 mph 19.6 mph 0.12 in Rain Rain
7:55 PM 46.4 °F 39.8 °F 46.4 °F 100% 29.76 in 3.0 mi East 16.1 mph 27.6 mph 0.22 in Rain Heavy Rain
8:15 PM 46.4 °F 39.8 °F 46.4 °F 100% 29.75 in 2.5 mi East 16.1 mph 21.9 mph 0.10 in Rain Rain
8:35 PM 46.4 °F 40.7 °F 46.4 °F 100% 29.75 in 2.5 mi East 12.7 mph 20.7 mph 0.16 in Rain Light Rain
8:55 PM 46.4 °F 41.5 °F 46.4 °F 100% 29.74 in 3.0 mi ENE 10.4 mph 18.4 mph 0.19 in   Overcast
9:15 PM 46.4 °F 41.5 °F 46.4 °F 100% 29.72 in 5.0 mi ENE 10.4 mph 19.6 mph N/A   Overcast
9:35 PM 46.4 °F 41.1 °F 46.4 °F 100% 29.68 in 3.0 mi ENE 11.5 mph 23.0 mph N/A   Overcast
9:55 PM 46.4 °F 40.4 °F 46.4 °F 100% 29.68 in 6.0 mi ENE 13.8 mph 25.3 mph N/A Rain Light Rain
10:15 PM 46.4 °F 42.9 °F 46.4 °F 100% 29.66 in 1.8 mi ENE 6.9 mph 19.6 mph 0.03 in Rain Rain
10:35 PM 46.4 °F 42.9 °F 46.4 °F 100% 29.64 in 3.0 mi ENE 6.9 mph - 0.23 in Rain Heavy Rain
10:55 PM 46.4 °F 42.4 °F 46.4 °F 100% 29.64 in 2.0 mi East 8.1 mph - 0.36 in Rain Rain
11:15 PM 46.4 °F 40.1 °F 46.4 °F 100% 29.63 in 2.0 mi East 15.0 mph 21.9 mph N/A Rain Light Rain
11:35 PM 46.4 °F 42.4 °F 46.4 °F 100% 29.64 in 1.8 mi ENE 8.1 mph - 0.01 in Rain Light Rain
11:55 PM 46.4 °F 41.5 °F 46.4 °F 100% 29.62 in 1.8 mi East 10.4 mph 18.4 mph 0.02 in   Overcast